Location: Cheyres
(46.8153°N, 6.7877°E)
Time: 00:32:25
(UTC+00:00)

Tiros 1 - Pass Details

Date: 01 June 2022
Orbit: 629 x 663 km, 48.4° (Epoch: 05 July)

Event Time Altitude Azimuth Distance (km) Brightness Sun altitude
Exits shadow 00:02:38 10° 263° (W) 2,009 9.5 -20.8°
Reaches altitude 10° 00:02:38 10° 263° (W) 2,006 9.5 -20.8°
Maximum altitude 00:07:15 79° 350° (N) 648 7.1 -20.7°
Drops below altitude 10° 00:11:55 10° 78° (ENE) 2,022 10.0 -20.5°
Sets 00:14:15 0° 79° (E) 2,936 10.8 -20.5°
